User: anonymous   Login
Location: Churchill
(58.7670°N, 94.1670°W)
Time: 07:21:21
(UTC-06:00)
Language:

Cosmos 1315 Rocket - Orbit

View from above orbital plane
View from above orbital plane
View from above satellite
View from above satellite

Ground track
Ground track

The orbit data is extracted from the following two-line orbital elements,

1 12904U 81103B   17023.52757068 -.00000098  00000-0 -84932-5 0  9992
2 12904  81.1767  80.7700 0028786 178.7307 181.3995 15.05170725471061
Epoch (UTC): 23 January 2017 12:39:42
Eccentricity: 0.0028786
inclination: 81.1767°
perigee height: 531 km
apogee height: 571 km
right ascension of ascending node: 80.7700°
argument of perigee: 178.7307°
revolutions per day: 15.05170725
mean anomaly at epoch: 181.3995°
orbit number at epoch: 47106

The dashed part of the orbit path shows where the satellite is in the earth's shadow,  

DLR